�������l�o���
Date,Time,MP-1(��Sv/h),MP-2(��Sv/h),MP-3(��Sv/h),MP-4(��Sv/h),MP-5(��Sv/h),MP-6(��Sv/h),MP-7(��Sv/h),MP-8(��Sv/h),����,����(m/s),���J
2023/09/10,00:00,0.511,0.746,0.475,0.948,0.659,0.316,0.560,0.523,��,3.5,��
2023/09/10,00:10,0.509,0.747,0.474,0.948,0.657,0.316,0.560,0.521,��,3.8,��
2023/09/10,00:20,0.511,0.746,0.474,0.949,0.657,0.317,0.559,0.523,��,4.2,��
2023/09/10,00:30,0.511,0.749,0.476,0.948,0.657,0.317,0.559,0.522,��,4.4,��
2023/09/10,00:40,0.512,0.747,0.474,0.951,0.658,0.317,0.561,0.522,��,3.8,��
2023/09/10,00:50,0.512,0.747,0.475,0.950,0.658,0.316,0.559,0.522,��,4.5,��
2023/09/10,01:00,0.512,0.749,0.475,0.952,0.660,0.316,0.560,0.523,��,4.1,��
2023/09/10,01:10,0.510,0.748,0.475,0.950,0.659,0.317,0.559,0.522,��,4.3,��
2023/09/10,01:20,0.511,0.748,0.475,0.949,0.659,0.318,0.560,0.523,��,5.5,��
2023/09/10,01:30,0.512,0.749,0.474,0.953,0.660,0.316,0.561,0.524,��쐼,5.5,��
2023/09/10,01:40,0.512,0.749,0.475,0.951,0.659,0.318,0.560,0.523,��쐼,4.7,��
2023/09/10,01:50,0.511,0.748,0.475,0.950,0.660,0.317,0.561,0.523,��쐼,4.4,��
2023/09/10,02:00,0.511,0.747,0.474,0.950,0.662,0.316,0.561,0.523,��쐼,4.0,��
2023/09/10,02:10,0.512,0.748,0.474,0.949,0.659,0.316,0.561,0.524,-,CALM,��
2023/09/10,02:20,0.510,0.748,0.475,0.950,0.661,0.316,0.562,0.524,��쐼,2.3,��
2023/09/10,02:30,0.511,0.746,0.474,0.951,0.658,0.317,0.560,0.523,-,CALM,��
2023/09/10,02:40,0.511,0.747,0.474,0.949,0.659,0.316,0.562,0.524,�쐼,2.5,��
2023/09/10,02:50,0.511,0.748,0.473,0.948,0.658,0.316,0.560,0.523,��쐼,2.5,��
2023/09/10,03:00,0.511,0.747,0.475,0.951,0.661,0.317,0.562,0.525,��쐼,2.2,��
2023/09/10,03:10,0.512,0.747,0.476,0.951,0.662,0.316,0.561,0.524,��쐼,2.3,��
2023/09/10,03:20,0.511,0.749,0.475,0.950,0.661,0.317,0.562,0.523,��쐼,2.6,��
2023/09/10,03:30,0.512,0.748,0.474,0.949,0.661,0.317,0.562,0.523,��쐼,2.3,��
2023/09/10,03:40,0.511,0.747,0.475,0.950,0.660,0.317,0.561,0.524,��쐼,2.9,��
2023/09/10,03:50,0.512,0.748,0.474,0.951,0.660,0.318,0.561,0.524,��쐼,2.8,��
2023/09/10,04:00,0.511,0.749,0.476,0.951,0.661,0.317,0.561,0.523,��쐼,2.5,��
2023/09/10,04:10,0.512,0.748,0.475,0.950,0.661,0.317,0.563,0.523,��쐼,1.7,��
2023/09/10,04:20,0.510,0.749,0.474,0.950,0.662,0.316,0.562,0.524,��,1.1,��
2023/09/10,04:30,0.510,0.749,0.475,0.952,0.662,0.317,0.561,0.523,��쐼,1.5,��
2023/09/10,04:40,0.511,0.749,0.475,0.952,0.660,0.316,0.561,0.523,��쐼,1.0,��
2023/09/10,04:50,0.510,0.748,0.475,0.951,0.662,0.317,0.562,0.525,��쐼,0.8,��
2023/09/10,05:00,0.510,0.751,0.475,0.951,0.660,0.317,0.560,0.524,-,CALM,��
2023/09/10,05:10,0.512,0.749,0.475,0.951,0.663,0.317,0.563,0.524,��쓌,0.6,��
2023/09/10,05:20,0.512,0.749,0.474,0.951,0.661,0.316,0.561,0.524,-,CALM,��
2023/09/10,05:30,0.512,0.750,0.476,0.952,0.662,0.317,0.561,0.525,-,CALM,��
2023/09/10,05:40,0.512,0.749,0.476,0.951,0.662,0.318,0.560,0.523,�k�k��,0.7,��
2023/09/10,05:50,0.513,0.750,0.473,0.953,0.661,0.316,0.563,0.523,-,CALM,��
2023/09/10,06:00,0.510,0.750,0.476,0.953,0.660,0.317,0.561,0.524,���k��,1.5,��
2023/09/10,06:10,0.513,0.749,0.475,0.951,0.664,0.318,0.562,0.522,���k��,1.9,��
2023/09/10,06:20,0.512,0.750,0.474,0.952,0.664,0.317,0.561,0.523,�k��,1.2,��
2023/09/10,06:30,0.512,0.751,0.475,0.953,0.661,0.317,0.563,0.523,��,0.6,��
2023/09/10,06:40,0.513,0.750,0.475,0.952,0.661,0.318,0.562,0.523,��,0.9,��
2023/09/10,06:50,0.513,0.751,0.476,0.951,0.662,0.317,0.563,0.523,���k��,0.9,��
2023/09/10,07:00,0.512,0.751,0.476,0.952,0.661,0.318,0.561,0.524,-,CALM,��
2023/09/10,07:10,0.512,0.750,0.475,0.951,0.663,0.317,0.562,0.524,�k�k��,2.0,��
2023/09/10,07:20,0.514,0.750,0.477,0.951,0.662,0.318,0.561,0.523,�k�k��,2.3,��
2023/09/10,07:30,0.513,0.747,0.476,0.951,0.664,0.316,0.563,0.525,�k,1.9,��
2023/09/10,07:40,0.512,0.750,0.475,0.951,0.664,0.317,0.563,0.524,�k,1.2,��
2023/09/10,07:50,0.513,0.749,0.476,0.951,0.661,0.318,0.563,0.523,�k,1.9,��
2023/09/10,08:00,0.512,0.750,0.475,0.951,0.662,0.318,0.562,0.524,�k,2.6,��
2023/09/10,08:10,0.513,0.751,0.474,0.952,0.664,0.318,0.563,0.524,�k,3.0,��
2023/09/10,08:20,0.512,0.751,0.477,0.952,0.663,0.319,0.564,0.524,�k�k��,2.5,��
2023/09/10,08:30,0.512,0.750,0.475,0.953,0.663,0.316,0.564,0.526,�k�k��,2.6,��
2023/09/10,08:40,0.512,0.753,0.475,0.952,0.663,0.317,0.564,0.523,�k�k��,2.6,��
2023/09/10,08:50,0.512,0.753,0.477,0.951,0.664,0.317,0.563,0.523,�k��,2.9,��
2023/09/10,09:00,0.513,0.751,0.475,0.952,0.665,0.317,0.564,0.521,�k�k��,3.4,��
2023/09/10,09:10,0.513,0.750,0.475,0.952,0.663,0.319,0.562,0.522,�k��,2.9,��
2023/09/10,09:20,0.512,0.750,0.473,0.952,0.663,0.318,0.562,0.522,�k��,3.0,��
2023/09/10,09:30,0.515,0.751,0.474,0.953,0.663,0.317,0.561,0.522,�k��,2.0,��
2023/09/10,09:40,0.513,0.751,0.475,0.953,0.663,0.318,0.559,0.522,���k��,2.5,��
2023/09/10,09:50,0.513,0.752,0.476,0.950,0.663,0.317,0.561,0.522,���k��,2.3,��
2023/09/10,10:00,0.513,0.750,0.478,0.951,0.664,0.316,0.562,0.522,���k��,2.3,��
2023/09/10,10:10,0.513,0.750,0.474,0.950,0.664,0.316,0.560,0.523,���k��,2.3,��
2023/09/10,10:20,0.514,0.752,0.475,0.953,0.664,0.317,0.563,0.522,��,1.7,��
2023/09/10,10:30,0.514,0.754,0.474,0.954,0.665,0.317,0.563,0.524,���k��,1.9,��
2023/09/10,10:40,0.513,0.752,0.475,0.954,0.665,0.316,0.563,0.524,���k��,2.2,��
2023/09/10,10:50,0.512,0.754,0.475,0.955,0.664,0.318,0.562,0.523,�k��,2.9,��
2023/09/10,11:00,0.513,0.754,0.477,0.951,0.665,0.315,0.563,0.523,�k��,2.6,��
2023/09/10,11:10,0.512,0.754,0.476,0.952,0.665,0.316,0.563,0.523,�k��,2.5,��
2023/09/10,11:20,0.514,0.755,0.478,0.955,0.667,0.316,0.564,0.524,�k��,2.2,��
2023/09/10,11:30,0.515,0.754,0.476,0.953,0.667,0.316,0.563,0.524,���k��,1.9,��
2023/09/10,11:40,0.514,0.754,0.476,0.954,0.666,0.316,0.564,0.524,�k��,2.2,��
2023/09/10,11:50,0.516,0.755,0.477,0.953,0.668,0.317,0.564,0.524,���k��,2.0,��
2023/09/10,12:00,0.513,0.756,0.477,0.954,0.669,0.316,0.562,0.524,���k��,2.3,��
2023/09/10,12:10,0.516,0.756,0.476,0.953,0.668,0.317,0.563,0.524,�k��,2.8,��
2023/09/10,12:20,0.514,0.757,0.477,0.955,0.669,0.317,0.564,0.524,���k��,2.8,��
2023/09/10,12:30,0.516,0.757,0.478,0.955,0.667,0.317,0.563,0.525,��,2.5,��
2023/09/10,12:40,0.515,0.757,0.478,0.955,0.669,0.316,0.564,0.525,��,2.3,��
2023/09/10,12:50,0.515,0.756,0.477,0.957,0.669,0.316,0.563,0.524,���쓌,2.3,��
2023/09/10,13:00,0.515,0.758,0.477,0.955,0.669,0.317,0.563,0.525,�쓌,2.6,��
2023/09/10,13:10,0.516,0.758,0.478,0.956,0.671,0.318,0.564,0.527,���쓌,2.0,��
2023/09/10,13:20,0.516,0.758,0.477,0.954,0.670,0.316,0.565,0.526,�쓌,2.6,��
2023/09/10,13:30,0.516,0.758,0.479,0.956,0.671,0.317,0.565,0.525,�쓌,2.6,��
2023/09/10,13:40,0.516,0.757,0.478,0.956,0.669,0.318,0.565,0.524,�쓌,2.6,��
2023/09/10,13:50,0.515,0.759,0.476,0.956,0.670,0.318,0.564,0.525,�쓌,2.9,��
2023/09/10,14:00,0.517,0.758,0.478,0.956,0.671,0.318,0.564,0.524,���쓌,3.3,��
2023/09/10,14:10,0.515,0.759,0.478,0.957,0.671,0.318,0.562,0.525,�쓌,3.9,��
2023/09/10,14:20,0.517,0.759,0.478,0.956,0.670,0.318,0.564,0.525,�쓌,3.6,��
2023/09/10,14:30,0.515,0.760,0.476,0.958,0.672,0.317,0.565,0.526,��쓌,3.7,��
2023/09/10,14:40,0.515,0.758,0.477,0.957,0.670,0.318,0.565,0.526,���쓌,3.1,��
2023/09/10,14:50,0.515,0.758,0.478,0.955,0.672,0.318,0.564,0.524,�쓌,3.5,��
2023/09/10,15:00,0.514,0.761,0.476,0.955,0.670,0.318,0.565,0.525,��쓌,3.6,��
2023/09/10,15:10,0.516,0.760,0.477,0.959,0.672,0.318,0.564,0.525,��쓌,3.7,��
2023/09/10,15:20,0.516,0.760,0.478,0.958,0.673,0.317,0.564,0.527,�쓌,3.1,��
2023/09/10,15:30,0.515,0.758,0.478,0.958,0.671,0.317,0.565,0.527,��쓌,3.0,��
2023/09/10,15:40,0.515,0.758,0.477,0.957,0.672,0.316,0.564,0.524,�쓌,2.9,��
2023/09/10,15:50,0.515,0.758,0.478,0.957,0.671,0.316,0.563,0.525,��쓌,3.8,��
2023/09/10,16:00,0.515,0.760,0.478,0.958,0.670,0.316,0.564,0.527,��쓌,4.0,��
2023/09/10,16:10,0.516,0.761,0.478,0.960,0.670,0.317,0.563,0.523,��쓌,4.4,��
2023/09/10,16:20,0.514,0.759,0.476,0.957,0.671,0.317,0.563,0.524,��쓌,4.4,��
2023/09/10,16:30,0.516,0.760,0.477,0.956,0.672,0.316,0.562,0.525,��쓌,5.1,��
2023/09/10,16:40,0.515,0.760,0.478,0.958,0.671,0.316,0.563,0.525,��쓌,4.6,��
2023/09/10,16:50,0.516,0.760,0.477,0.956,0.672,0.317,0.563,0.525,��쓌,4.0,��
2023/09/10,17:00,0.515,0.759,0.478,0.956,0.670,0.316,0.564,0.522,��,3.5,��
2023/09/10,17:10,0.516,0.760,0.477,0.957,0.670,0.318,0.564,0.524,��,4.6,��
2023/09/10,17:20,0.516,0.759,0.478,0.957,0.672,0.318,0.562,0.524,��,3.5,��
2023/09/10,17:30,0.517,0.761,0.477,0.957,0.672,0.317,0.564,0.524,��,4.4,��
2023/09/10,17:40,0.514,0.759,0.480,0.956,0.671,0.317,0.562,0.524,��,3.9,��
2023/09/10,17:50,0.515,0.761,0.478,0.960,0.673,0.316,0.561,0.524,��,2.9,��
2023/09/10,18:00,0.516,0.761,0.479,0.957,0.673,0.318,0.563,0.525,��,3.2,��
2023/09/10,18:10,0.518,0.759,0.478,0.958,0.673,0.318,0.563,0.524,��,3.5,��
2023/09/10,18:20,0.515,0.761,0.478,0.957,0.672,0.318,0.564,0.524,��,3.4,��
2023/09/10,18:30,0.516,0.761,0.478,0.957,0.673,0.318,0.564,0.524,��,2.6,��
2023/09/10,18:40,0.517,0.759,0.478,0.957,0.674,0.318,0.564,0.524,��,2.2,��
2023/09/10,18:50,0.517,0.761,0.478,0.959,0.674,0.319,0.563,0.524,��,1.5,��
2023/09/10,19:00,0.518,0.762,0.479,0.961,0.674,0.317,0.562,0.524,��쐼,1.5,��
2023/09/10,19:10,0.516,0.763,0.478,0.956,0.673,0.318,0.564,0.524,��,1.5,��
2023/09/10,19:20,0.517,0.761,0.478,0.957,0.673,0.319,0.562,0.523,��,1.2,��
2023/09/10,19:30,0.517,0.761,0.478,0.957,0.674,0.319,0.563,0.524,�쐼,1.5,��
2023/09/10,19:40,0.516,0.763,0.479,0.960,0.675,0.319,0.564,0.525,�쐼,1.7,��
2023/09/10,19:50,0.516,0.763,0.477,0.959,0.673,0.320,0.563,0.524,��쐼,2.5,��
2023/09/10,20:00,0.517,0.761,0.479,0.960,0.673,0.320,0.565,0.524,��,2.3,��
2023/09/10,20:10,0.516,0.761,0.479,0.960,0.672,0.318,0.563,0.524,��,2.5,��
2023/09/10,20:20,0.516,0.764,0.479,0.958,0.672,0.319,0.564,0.525,��,3.1,��
2023/09/10,20:30,0.517,0.764,0.480,0.958,0.675,0.319,0.563,0.526,��,2.0,��
2023/09/10,20:40,0.517,0.763,0.480,0.959,0.674,0.320,0.564,0.524,��,0.9,��
2023/09/10,20:50,0.516,0.762,0.480,0.959,0.674,0.319,0.564,0.525,��쐼,1.1,��
2023/09/10,21:00,0.517,0.763,0.480,0.961,0.675,0.318,0.563,0.525,��쐼,0.9,��
2023/09/10,21:10,0.518,0.763,0.479,0.959,0.675,0.319,0.565,0.525,��,0.8,��
2023/09/10,21:20,0.517,0.763,0.479,0.960,0.675,0.319,0.564,0.524,-,CALM,��
2023/09/10,21:30,0.518,0.762,0.479,0.957,0.675,0.319,0.565,0.525,-,CALM,��
2023/09/10,21:40,0.518,0.764,0.479,0.960,0.676,0.320,0.566,0.526,-,CALM,��
2023/09/10,21:50,0.517,0.765,0.479,0.961,0.675,0.318,0.565,0.526,-,CALM,��
2023/09/10,22:00,0.518,0.763,0.480,0.959,0.675,0.320,0.565,0.526,�k,0.8,��
2023/09/10,22:10,0.516,0.764,0.481,0.960,0.677,0.320,0.565,0.526,�k�k��,0.6,��
2023/09/10,22:20,0.517,0.762,0.480,0.959,0.675,0.319,0.564,0.527,�k�k��,0.9,��
2023/09/10,22:30,0.517,0.762,0.480,0.961,0.675,0.321,0.564,0.525,-,CALM,��
2023/09/10,22:40,0.515,0.764,0.479,0.959,0.676,0.320,0.565,0.525,�k,1.1,��
2023/09/10,22:50,0.517,0.765,0.478,0.959,0.674,0.320,0.566,0.525,�k,0.9,��
2023/09/10,23:00,0.518,0.764,0.479,0.960,0.675,0.318,0.564,0.526,�k��,0.6,��
2023/09/10,23:10,0.516,0.764,0.480,0.959,0.674,0.319,0.564,0.525,�k,1.2,��
2023/09/10,23:20,0.516,0.765,0.480,0.958,0.674,0.321,0.565,0.526,�k��,0.9,��
2023/09/10,23:30,0.518,0.766,0.480,0.959,0.677,0.319,0.565,0.526,�k,1.6,��
2023/09/10,23:40,0.518,0.765,0.479,0.963,0.677,0.320,0.565,0.525,�k�k��,2.0,��
2023/09/10,23:50,0.518,0.764,0.480,0.958,0.677,0.320,0.565,0.525,�k�k��,1.9,��
